Vorticity
5 5 6 8 4 3 1 3 6 8 4 8 4 1 4 6 7 6 7 6 5 5 6 5 3 4 4 4 6 6 4 4
7 6 7 7 6 3 3 3 6 10 8 7 9 7 7 3 3 4 6 7 5 5 6 5 5 4 4 4 4 6 5 5
7 11 6 6 10 4 4 6 5 6 4 5 7 5 5 2 2 3 4 5 5 6 6 5 5 4 5 5 5 6 6 4
10 6 8 6 6 7 5 6 6 7 6 5 7 5 3 4 9 7 5 2 3 4 3 5 5 5 6 5 6 5 5 5
2 4 6 7 5 5 5 3 3 3 3 4 6 5 5 7 6 4 3 3 3 3 3 4 5 5 6 7 8 7 6 7
4 6 -1 10 5 3 2 3 3 3 4 4 7 6 7 4 9 9 6 5 4 6 5 5 3 1 2 8 7 13 11 12
5 8 4 4 3 4 4 3 4 3 4 4 7 6 5 15 13 7 8 6 6 2 2 8 5 12 7 2 6 6 8 11
15 8 5 6 8 7 5 -2 3 2 4 4 11 12 2 -5 3 9 -4 4 7 11 8 15 4 -2 2 4 8 14 9 9
-1 6 14 8 3 4 8 8 5 2 1 2 0 -9 -1 -3 2 1 6 7 7 10 10 3 -1 4 5 7 8 3 2 7
5 26 -6 12 8 7 -2 4 17 13 13 3 1 4 -2 12 7 11 7 12 12 14 1 3 5 8 4 -3 6 6 7 6
29 19 4 3 -0 -3 3 8 -2 -0 7 12 8 3 16 12 6 -6 11 8 14 15 -1 6 4 -4 10 8 2 5 4 6
5 10 38 40 17 -3 11 11 6 9 6 6 6 11 1 -8 2 23 -3 4 12 10 -1 -2 1 3 3 8 6 9 10 7
3 11 0 -9 6 37 41 0 -7 8 11 8 3 3 4 6 8 10 9 8 1 3 -6 10 2 2 11 5 1 9 3 5
7 17 8 9 4 1 4 13 24 29 17 3 2 5 8 10 7 4 5 6 7 7 3 9 2 9 8 3 10 7 6 8
18 9 1 7 11 7 8 4 4 4 7 16 19 15 11 8 8 9 12 12 13 7 7 8 6 3 6 5 5 -3 9 8
37 21 20 23 -1 1 9 6 7 6 7 9 8 6 5 6 7 9 9 9 5 5 6 7 7 6 10 12 11 10 3 9
16 32 16 18 27 35 8 -5 7 8 6 7 5 6 10 11 8 3 1 3 9 16 18 15 14 12 11 15 22 16 13 12
16 4 24 30 24 12 29 32 13 -5 14 17 3 6 8 5 5 9 12 10 10 10 9 10 10 11 13 12 13 12 6 5
-5 -2 -0 -2 2 17 20 25 23 33 21 9 2 10 9 8 8 8 6 5 4 7 6 7 6 6 6 9 15 4 9 7
Height
5801 5806 5809 5812 5814 5815 5816 5821 5825 5828 5831 5833 5832 5834 5834 5834 5836 5837 5839 5841 5841 5841 5841 5841 5841 5842 5842 5842 5842 5842 5841 5840
5792 5796 5798 5802 5804 5805 5807 5812 5817 5821 5824 5827 5828 5829 5829 5829 5830 5831 5834 5835 5835 5835 5835 5836 5836 5836 5836 5836 5836 5836 5834 5833
5783 5783 5787 5791 5793 5795 5798 5803 5808 5812 5816 5820 5821 5822 5823 5824 5825 5827 5827 5827 5828 5829 5829 5829 5830 5829 5830 5829 5829 5830 5829 5827
5770 5773 5773 5779 5782 5786 5788 5794 5798 5802 5806 5810 5812 5814 5816 5818 5822 5821 5820 5819 5821 5822 5823 5823 5824 5823 5822 5822 5822 5821 5821 5821
5756 5761 5764 5767 5772 5774 5778 5782 5786 5790 5796 5799 5803 5807 5809 5812 5813 5812 5813 5814 5814 5815 5814 5815 5816 5816 5815 5816 5815 5814 5814 5814
5744 5748 5753 5756 5760 5763 5767 5771 5776 5779 5783 5789 5793 5797 5801 5802 5804 5804 5805 5807 5807 5807 5807 5807 5807 5808 5808 5808 5808 5807 5806 5806
5732 5735 5738 5743 5748 5752 5755 5760 5764 5768 5772 5777 5783 5787 5790 5792 5793 5795 5796 5797 5798 5799 5799 5799 5799 5799 5799 5799 5799 5800 5799 5798
5715 5724 5727 5731 5734 5739 5743 5748 5756 5758 5762 5765 5770 5775 5776 5781 5783 5784 5787 5787 5789 5790 5790 5790 5791 5790 5789 5787 5789 5792 5790 5790
5705 5709 5715 5715 5717 5725 5731 5737 5742 5746 5749 5754 5758 5763 5766 5768 5771 5773 5775 5778 5779 5780 5780 5781 5781 5780 5780 5779 5780 5782 5782 5780
5687 5696 5700 5706 5709 5714 5718 5724 5729 5734 5737 5741 5747 5750 5754 5757 5760 5762 5763 5766 5768 5769 5770 5771 5771 5771 5771 5770 5771 5772 5771 5771
5673 5678 5686 5690 5694 5699 5704 5709 5714 5719 5724 5729 5734 5738 5741 5744 5747 5749 5752 5754 5755 5758 5760 5760 5761 5761 5762 5761 5761 5761 5761 5762
5660 5664 5668 5673 5679 5685 5690 5695 5698 5703 5708 5714 5718 5723 5728 5731 5734 5736 5738 5741 5743 5746 5749 5751 5750 5751 5751 5750 5750 5751 5751 5751
5642 5648 5653 5658 5662 5666 5673 5680 5684 5688 5693 5698 5704 5708 5711 5716 5720 5723 5726 5729 5733 5736 5738 5740 5739 5739 5739 5740 5740 5742 5741 5741
5626 5631 5637 5643 5649 5654 5658 5662 5668 5673 5677 5682 5688 5692 5696 5700 5704 5709 5712 5716 5720 5723 5726 5728 5729 5729 5729 5730 5730 5730 5730 5729
5607 5613 5620 5627 5633 5639 5644 5649 5653 5658 5663 5667 5672 5676 5680 5685 5689 5694 5698 5702 5706 5708 5712 5714 5716 5718 5719 5718 5718 5719 5718 5717
5589 5596 5603 5609 5616 5623 5628 5633 5638 5643 5647 5651 5656 5661 5665 5669 5674 5678 5682 5687 5691 5694 5697 5700 5702 5705 5705 5705 5706 5706 5705 5705
5575 5579 5585 5591 5597 5604 5611 5615 5621 5626 5630 5635 5640 5645 5649 5654 5659 5662 5666 5671 5675 5679 5683 5686 5689 5690 5691 5692 5692 5692 5692 5694
5560 5566 5568 5573 5579 5586 5590 5597 5603 5608 5613 5618 5623 5628 5633 5638 5643 5647 5650 5655 5660 5664 5668 5672 5675 5676 5677 5677 5678 5679 5680 5682
5546 5550 5554 5557 5564 5569 5574 5580 5585 5590 5594 5601 5606 5611 5617 5622 5627 5632 5636 5640 5646 5650 5654 5657 5661 5662 5663 5664 5665 5666 5669 5669